Weather History for West Palm Beach, FL

Change the Weather History Date:

Friday, August 23, 2013

  Actual Average Record
Temperature  
Mean Temperature 87 °F 83 °F  
Max Temperature 92 °F 90 °F 96 °F (1924)
Min Temperature 82 °F 76 °F 69 °F (1920)
Degree Days  
Heating Degree Days 0 0  
Month to date heating degree days 0 0  
Since 1 June heating degree days 0 0  
Since 1 July heating degree days 0 0  
Cooling Degree Days 22 18  
Month to date cooling degree days 483 414  
Year to date cooling degree days 2733 2562  
Since 1 June cooling degree days 1548 1453  
Growing Degree Days 36 (Base 50)    
Moisture  
Dew Point 73 °F    
Average Humidity 65    
Maximum Humidity 74    
Minimum Humidity 56    
Precipitation  
Precipitation 0.00 in 0.27 in 8.01 in (1995)
Month to date precipitation 3.06 5.74  
Year to date precipitation 46.58 38.51  
Snow  
Snow 0.00 in - - ()
Month to date snowfall 0.0  
Since 1 June snowfall 0.0  
Since 1 July snowfall 0.0  
Snow Depth 0.00 in    
Sea Level Pressure  
Sea Level Pressure 29.98 in    
Wind  
Wind Speed 8 mph (ESE)    
Max Wind Speed 18 mph    
Max Gust Speed 23 mph    
Visibility 10 miles    
Events      
T = Trace of Precipitation, MM = Missing Value Source: NWS Daily Summary

Daily Weather History Graph

Daily Weather History Graph

Search for Another Location

Airport:

Trip Planner

Search our weather history database for the weather conditions in past years. The results will help you decide how hot, cold, wet, or windy it might be!

Date:

Astronomy

Aug. 23, 2013 Rise Set
Actual Time 6:56 AM EDT 7:49 PM EDT
Civil Twilight 6:32 AM EDT 8:13 PM EDT
Nautical Twilight 6:04 AM EDT 8:41 PM EDT
Astronomical Twilight 5:35 AM EDT 9:10 PM EDT
Moon 9:31 PM EDT (8/23) 9:27 AM EDT (8/23)
Length of Visible Light 13h 41m
Length of Day
12h 53m
Waning Gibbous, 91% of the Moon is Illuminated
Aug 23
Waning Gibbous
Aug 28
Last Quarter
Sep 5
New
Sep 12
First Quarter
Sep 19
Full

Hourly Weather History & Observations

Time (EDT) Temp. Heat Index Dew Point Humidity Pressure Visibility Wind Dir Wind Speed Gust Speed Precip Events Conditions
12:53 AM 84.0 °F 89.0 °F 71.1 °F 65% 30.01 in 10.0 mi SE 3.5 mph - N/A   Mostly Cloudy
1:53 AM 82.9 °F 89.4 °F 73.9 °F 74% 29.99 in 10.0 mi Calm Calm - N/A   Mostly Cloudy
2:53 AM 84.0 °F 89.6 °F 72.0 °F 67% 29.96 in 10.0 mi ESE 6.9 mph - N/A   Mostly Cloudy
3:53 AM 82.9 °F 88.0 °F 72.0 °F 69% 29.95 in 10.0 mi ESE 8.1 mph - N/A   Mostly Cloudy
4:53 AM 82.9 °F 88.8 °F 73.0 °F 72% 29.95 in 10.0 mi SE 5.8 mph - N/A   Scattered Clouds
5:53 AM 82.9 °F 88.8 °F 73.0 °F 72% 29.95 in 10.0 mi ESE 5.8 mph - N/A   Scattered Clouds
6:53 AM 82.9 °F 88.8 °F 73.0 °F 72% 29.96 in 10.0 mi SE 3.5 mph - N/A   Mostly Cloudy
7:53 AM 84.0 °F 91.2 °F 73.9 °F 72% 29.97 in 10.0 mi ESE 6.9 mph - N/A   Scattered Clouds
8:53 AM 87.1 °F 93.6 °F 72.0 °F 61% 29.99 in 10.0 mi SE 5.8 mph - N/A   Mostly Cloudy
9:53 AM 88.0 °F 95.6 °F 73.0 °F 61% 30.00 in 10.0 mi ESE 8.1 mph - N/A   Scattered Clouds
10:53 AM 89.1 °F 97.0 °F 73.0 °F 59% 30.01 in 10.0 mi ESE 10.4 mph 17.3 mph N/A   Mostly Cloudy
11:53 AM 89.1 °F 96.0 °F 72.0 °F 57% 30.01 in 10.0 mi East 10.4 mph - N/A   Mostly Cloudy
12:53 PM 90.0 °F 96.9 °F 72.0 °F 55% 30.00 in 10.0 mi ESE 10.4 mph - N/A   Mostly Cloudy
1:53 PM 91.0 °F 99.3 °F 73.0 °F 55% 29.99 in 10.0 mi East 15.0 mph - N/A   Mostly Cloudy
2:53 PM 90.0 °F 97.9 °F 73.0 °F 57% 29.98 in 10.0 mi ESE 13.8 mph - N/A   Mostly Cloudy
3:53 PM 90.0 °F 97.9 °F 73.0 °F 57% 29.97 in 10.0 mi ESE 13.8 mph - N/A   Scattered Clouds
4:53 PM 86.0 °F 92.2 °F 72.0 °F 63% 29.97 in 10.0 mi SE 13.8 mph - N/A   Scattered Clouds
5:53 PM 84.9 °F 90.7 °F 72.0 °F 65% 29.97 in 10.0 mi SE 9.2 mph - N/A   Mostly Cloudy
6:53 PM 84.9 °F 90.7 °F 72.0 °F 65% 29.98 in 10.0 mi SSE 8.1 mph - N/A   Mostly Cloudy
7:53 PM 84.9 °F 91.4 °F 73.0 °F 67% 29.98 in 10.0 mi SSE 6.9 mph - N/A   Mostly Cloudy
8:53 PM 84.0 °F 91.2 °F 73.9 °F 72% 30.00 in 10.0 mi SE 6.9 mph - N/A   Scattered Clouds
9:53 PM 84.0 °F 91.2 °F 73.9 °F 72% 30.02 in 10.0 mi SE 6.9 mph - N/A   Scattered Clouds
10:53 PM 84.9 °F 90.1 °F 71.1 °F 63% 30.01 in 10.0 mi ESE 9.2 mph - N/A   Scattered Clouds
11:53 PM 84.9 °F 90.7 °F 72.0 °F 65% 30.01 in 10.0 mi ESE 9.2 mph - N/A   Scattered Clouds